Regional Weather Roundup
Issued by NWS

Home | Current Version | Previous Version | Graphics & Text | Print | Product List | Glossary On
Versions: 1 2 3 4 5 6 7 8 9 10 11 12 13 14 15 16 17 18 19 20 21 22 23 24 25 26 27 28 29 30 31 32 33 34 35 36 37 38 39 40 41 42 43 44 45 46 47 48 49 50
000
ASUS43 KLOT 130308
RWRIL

ILLINOIS REGIONAL WEATHER ROUNDUP
NATIONAL WEATHER SERVICE CHICAGO/ROMEOVILLE IL
900 PM CST TUE DEC 12 2017

NOTE: "FAIR" INDICATES FEW OR NO CLOUDS BELOW 12,000 FEET WITH NO
SIGNIFICANT WEATHER AND/OR OBSTRUCTIONS TO VISIBILITY.

* THESE STATIONS ARE NOT UNDER NWS QUALITY CONTROL. THEY ALSO MAY NOT
  REPORT WEATHER SUCH AS PRECIPITATION OR FOG.

ILZ001-002-007-009-015-016-024-130400-
NORTHWEST ILLINOIS

CITY           SKY/WX    TMP DP  RH WIND       PRES   REMARKS
MOLINE         CLEAR     24   5  44 SW5       29.99F WCI  18
STERLING*      CLOUDY    24  15  68 SW3       30.00F
SAVANNA*       CLOUDY    24  13  62 SW6       29.98F WCI  17
$$

ILZ003-004-008-010-011-017-018-130400-
NORTH CENTRAL ILLINOIS

CITY           SKY/WX    TMP DP  RH WIND       PRES   REMARKS
ROCKFORD       CLOUDY    21   9  59 SW6       29.99F WCI  13
FREEPORT*      CLOUDY    20  13  73 SW5       29.99F WCI  14
ROCHELLE*      CLOUDY    20  13  73 W8        29.99S WCI  11
DE KALB*       CLOUDY    20  10  64 W7        29.98S WCI  11
PERU*          CLOUDY    23  10  57 W8        30.01F WCI  14
$$

ILZ005-006-012>014-019>023-130400-
NORTHEAST ILLINOIS

CITY           SKY/WX    TMP DP  RH WIND       PRES   REMARKS
CHICAGO-OHARE  CLOUDY    19   9  65 W6        29.98F WCI  11
CHICAGO-MIDWAY CLOUDY    20   9  62 W7        29.99F WCI  11
AURORA         CLOUDY    20  12  71 W5        30.00F WCI  13
LANSING*       MOCLDY    18  10  70 W6        29.99F WCI  10
JOLIET*        CLOUDY    22  10  59 SW3       30.01F
WAUKEGAN       CLOUDY    17   5  59 VRB3      29.96F
DUPAGE AIRPORT CLOUDY    19  10  68 W7        29.98F WCI  10
KANKAKEE*      CLOUDY    19   9  64 W3        30.02F
WHEELING       CLOUDY    19   9  65 W6        30.00F WCI  11
MORRIS*        CLOUDY    20  10  63 W3        30.01F
ROMEOVILLE*    CLOUDY    21   9  60 W5        30.00F WCI  14
NORTHERLY ISL    N/A     20   9  62 W8          N/A  WCI  10
$$

LMZ740>746-130400-
SOUTHERN LAKE MICHIGAN

STATION/POSITION SKY/WX   TEMP    WIND        PRES    VSBY  WAVE
                          AIR SEA DIR/SP/G                  HT/PER
                          (F)     (DEG/KT/KT) (MB)    (MI)  (FT/S)
HARRISON CRIB              21     270/ 10/ 13   N/A
BURNHAM HARBOR             21     270/  7/ 10   N/A
CALUMET HARBOR             19     250/  4/  7 1014.8F
BURNS HARBOR               22     280/ 12/ 16 1015.9F
MICHIGAN CITY              23     290/ 15/ 17   N/A
$$

ILZ025>027-034>036-040-047-049-050-058-095>099-130400-
WEST-CENTRAL ILLINOIS

CITY           SKY/WX    TMP DP  RH WIND       PRES   REMARKS
QUINCY         CLOUDY    24   6  46 SW8       30.03F WCI  15
GALESBURG*     CLOUDY    22  12  64 S6        30.01F WCI  15
MACOMB*        CLOUDY    21   6  52 SW7       30.04F WCI  12
JACKSONVILLE*  CLOUDY    25   3  39 SW5       30.06F WCI  19
PITTSFIELD*    CLOUDY    27   5  38 SW3       30.06F
$$

ILZ028>032-037-038-041>044-048-051>054-059>061-130400-
CENTRAL ILLINOIS

CITY           SKY/WX    TMP DP  RH WIND       PRES   REMARKS
PONTIAC        CLOUDY    25   9  50 SW6       30.02F WCI  18
DECATUR        PTCLDY    24   5  44 W5        30.05F WCI  18
PEORIA         CLOUDY    26   7  44 SW5       30.03F WCI  20
LACON*         CLOUDY    25   8  48 CALM      30.01F
LINCOLN*       PTCLDY    27   7  43 W3        30.05F
SPRINGFIELD    CLOUDY    24   5  44 S6        30.06F WCI  17
TAYLORVILLE    CLEAR     24   4  42 CALM      30.07F
$$

ILZ033-039-045-046-055>057-062-063-130400-
EAST-CENTRAL ILLINOIS

CITY           SKY/WX    TMP DP  RH WIND       PRES   REMARKS
CHAMPAIGN      PTCLDY    20   7  57 W8        30.04F WCI  10
DANVILLE*      CLOUDY    19   7  57 CALM      30.02F
RANTOUL*       CLOUDY    24  10  55 W6        30.03S WCI  17
MATTOON        CLEAR     21   8  57 W3        30.05F
PARIS*         MOCLDY    20  11  67 W7        30.06F WCI  11
$$

ILZ079-100>102-130400-
SOUTHWEST ILLINOIS

CITY           SKY/WX    TMP DP  RH WIND       PRES   REMARKS
ALTON          PTCLDY    25   9  50 SW6       30.09F WCI  18
BELLEVILLE     CLEAR     25   6  44 SW3       30.09F
CAHOKIA*       CLEAR     28   3  34 SW3       30.10F
SPARTA*        CLEAR     28   8  42 CALM      30.12F
$$

ILZ064>066-069>071-074>076-080>082-084>086-088>090-092>094-130400-
SOUTH-CENTRAL ILLINOIS

CITY           SKY/WX    TMP DP  RH WIND       PRES   REMARKS
CARBONDALE     CLEAR     24  11  57 SW3       30.12F
CAIRO*         CLEAR     24  12  60 CALM      30.14F
EFFINGHAM*     CLEAR     23  11  61 CALM      30.10F
MARION         CLEAR     28   7  42 CALM      30.12F
MT. VERNON     CLEAR     22  15  75 CALM      30.11F
CENTRALIA*     CLEAR     25  14  63 CALM      30.09F
SALEM*         CLEAR     27  12  54 W3        30.09F
METROPOLIS*    CLEAR     26  14  61 CALM      30.14F
$$

ILZ067-068-072-073-078-083-087-091-130400-
SOUTHEAST ILLINOIS

CITY           SKY/WX    TMP DP  RH WIND       PRES   REMARKS
LAWRENCEVILLE  CLEAR     25   9  50 W5        30.09F WCI  19
FLORA*         CLEAR     24  16  73 SW3       30.10F
FAIRFIELD*     CLEAR     24  14  66 CALM      30.10F
HARRISBURG*    CLEAR     24  16  70 CALM      30.13F
ROBINSON*      CLEAR     22  10  58 NW3       30.10S
CARMI*         PTCLDY    24  13  63 W6        30.11S WCI  17
$$

ABBREVIATIONS USED IN REMARKS
   TC - TEMPERATURE IN CELSIUS
  WCI - WIND CHILL INDEX
   HX - HEAT INDEX
  VSB - VISIBILITY
$$




USA.gov is the U.S. government's official web portal to all federal, state and local government web resources and services.